Weather History for KGRD - December, 2012

Change the Weather History Date:

Thursday, December 6, 2012

  Actual Average Record
Temperature  
Mean Temperature 54 °F -  
Max Temperature 59 °F - - ()
Min Temperature 48 °F - - ()
Degree Days  
Heating Degree Days 12    
Growing Degree Days 4 (Base 50)    
Moisture  
Dew Point 38 °F    
Average Humidity 58    
Maximum Humidity 71    
Minimum Humidity 43    
Precipitation  
Precipitation 0.00 in - - ()
Sea Level Pressure  
Sea Level Pressure 30.20 in    
Wind  
Wind Speed 7 mph (NE)    
Max Wind Speed 12 mph    
Max Gust Speed 16 mph    
Visibility 10 miles    
Events Rain    
T = Trace of Precipitation, MM = Missing Value Source: NWS Daily Summary

Daily Weather History Graph

Daily Weather History Graph

Search for Another Location

Airport or City:

Trip Planner

Search our weather history database for the weather conditions in past years. The results will help you decide how hot, cold, wet, or windy it might be!

Date:

Astronomy

Dec. 06, 2012 Rise Set
Actual Time 7:21 AM EST 5:18 PM EST
Civil Twilight 6:53 AM EST 5:46 PM EST
Nautical Twilight 6:22 AM EST 6:17 PM EST
Astronomical Twilight 5:51 AM EST 6:47 PM EST
Moon No Moon Rise 12:28 PM EST (12/6)
Length of Visible Light 10h 52m
Length of Day
9h 57m
Waning Gibbous, 49% of the Moon is Illuminated
Dec 6
Waning Gibbous
Dec 13
New
Dec 20
First Quarter
Dec 28
Full
Jan 4
Last Quarter

Hourly Weather History & Observations

Time (EST) Temp. Dew Point Humidity Pressure Visibility Wind Dir Wind Speed Gust Speed Precip Events Conditions
12:56 AM 59.0 °F 37.0 °F 44% 30.17 in 10.0 mi ENE 4.6 mph - N/A   Overcast
1:56 AM 57.9 °F 39.0 °F 49% 30.17 in 10.0 mi NE 4.6 mph - N/A   Overcast
2:56 AM 57.0 °F 39.9 °F 53% 30.17 in 10.0 mi NE 5.8 mph - N/A   Overcast
3:56 AM 57.0 °F 42.1 °F 57% 30.17 in 10.0 mi NE 6.9 mph - N/A   Overcast
4:56 AM 57.0 °F 44.1 °F 62% 30.17 in 10.0 mi ENE 8.1 mph - 0.00 in Rain Light Rain
5:56 AM 55.9 °F 37.9 °F 51% 30.19 in 10.0 mi NNE 8.1 mph - 0.00 in   Overcast
6:43 AM 55.4 °F 33.8 °F 44% 30.21 in 10.0 mi NE 8.1 mph - N/A   Overcast
6:56 AM 54.0 °F 33.1 °F 45% 30.21 in 10.0 mi NE 8.1 mph - N/A   Overcast
7:56 AM 54.0 °F 32.0 °F 43% 30.22 in 10.0 mi NE 8.1 mph - N/A   Overcast
8:56 AM 52.0 °F 35.1 °F 53% 30.24 in 10.0 mi NE 9.2 mph - N/A   Overcast
9:56 AM 52.0 °F 37.9 °F 59% 30.25 in 10.0 mi ENE 9.2 mph - N/A   Overcast
10:56 AM 52.0 °F 39.0 °F 61% 30.25 in 10.0 mi ENE 6.9 mph - N/A   Overcast
11:56 AM 52.0 °F 39.9 °F 63% 30.24 in 10.0 mi NE 8.1 mph 16.1 mph N/A   Overcast
12:56 PM 53.1 °F 39.9 °F 61% 30.22 in 10.0 mi NE 9.2 mph - N/A   Overcast
1:56 PM 54.0 °F 41.0 °F 62% 30.19 in 10.0 mi NE 11.5 mph - N/A   Overcast
2:49 PM 53.6 °F 39.2 °F 58% 30.19 in 10.0 mi NE 8.1 mph - N/A   Overcast
2:56 PM 53.1 °F 39.9 °F 61% 30.18 in 10.0 mi ENE 11.5 mph - N/A   Overcast
3:56 PM 53.1 °F 39.9 °F 61% 30.19 in 10.0 mi NE 5.8 mph - N/A   Overcast
4:21 PM 51.8 °F 39.2 °F 62% 30.20 in 10.0 mi NE 9.2 mph - N/A   Overcast
4:51 PM 51.8 °F 39.2 °F 62% 30.20 in 10.0 mi NE 5.8 mph - N/A   Overcast
4:56 PM 51.1 °F 39.9 °F 66% 30.19 in 10.0 mi ENE 5.8 mph - N/A   Overcast
5:56 PM 50.0 °F 39.0 °F 66% 30.19 in 10.0 mi NE 6.9 mph - N/A   Scattered Clouds
6:35 PM 48.2 °F 39.2 °F 71% 30.21 in 10.0 mi NE 5.8 mph - 0.00 in   Overcast
6:56 PM 48.9 °F 39.0 °F 69% 30.21 in 10.0 mi NE 4.6 mph - 0.00 in   Overcast
7:56 PM 48.9 °F 37.9 °F 66% 30.22 in 10.0 mi ENE 5.8 mph - N/A   Overcast
8:56 PM 48.9 °F 36.0 °F 61% 30.21 in 10.0 mi ENE 6.9 mph - N/A   Overcast
9:56 PM 48.0 °F 35.1 °F 61% 30.22 in 10.0 mi NE 9.2 mph 16.1 mph N/A   Overcast
10:56 PM 48.0 °F 35.1 °F 61% 30.21 in 10.0 mi NE 10.4 mph - N/A   Overcast
11:16 PM 48.2 °F 33.8 °F 58% 30.21 in 10.0 mi NE 8.1 mph - N/A   Overcast
11:56 PM 48.0 °F 35.1 °F 61% 30.20 in 10.0 mi ENE 8.1 mph - N/A   Overcast